www.pogodaiklimat.ru

Погода и климат >> Архив погоды >> Россия >> Ярославская область >> Рыбинск


АРХИВ ПОГОДЫ в Рыбинске

Время (UTC), дата Ветер
(напр.,м/с)
 
Видим.   Явления Облачность Т
(С)
Тd
(С)
f
(%)
Тe
(С)
Тes
(С)
Комфортность P
(гПа)
Po
(гПа)
Тmin
(С)
Tmax
(С)
R
(мм)
R24
(мм)
S
(см)
06 15.10 З 2 7000 м дымка ясно +10.2 +8.5 89 +9 +9 тепло 1024.9 1012.1
09 15.10 ЮЗ 1 15 км ясно +15.7 +10.0 69 +16 +20 тепло 1025.0 1012.4
12 15.10 З 1 15 км ясно +17.5 +9.4 59 +19 +20 тепло 1024.6 1012.0
15 15.10 штиль 0 13 км ясно +11.0 +8.2 83 +10 +10 тепло 1023.9 1011.1 +17.8
18 15.10 З 1 10 км ясно +9.8 +7.2 84 +9 +9 тепло 1023.7 1010.8
21 15.10 З 1 10 км ясно +8.8 +6.6 86 +8 +8 тепло 1023.8 1010.9
00 16.10 З 1 10 км ясно +7.4 +5.7 89 +6 +6 тепло 1023.6 1010.6
03 16.10 ЮВ 1 10 км 3/0
[Ci fib]
+3.0 +2.3 95 +1 +1 по сезону 1023.4 1010.2 +3.0
06 16.10 З 1 12 км 6/0
[Ci fib]
+8.0 +5.5 84 +7 +8 тепло 1023.1 1010.2 +2.5
09 16.10 ЮЗ 1 14 км 10/0
[Ci fib]
+12.9 +5.6 61 +13 +16 тепло 1022.1 1009.4
12 16.10 З 2 16 км 8/0
[Ci sp]
+16.8 +4.1 43 +17 +18 тепло 1020.4 1007.9
15 16.10 штиль 0 14 км 6/0
[Ac trans Ci fib]
+12.8 +5.0 59 +13 +13 тепло 1019.8 1007.1 +16.9
18 16.10 З 4 10 км 6/0
[Ac trans]
+13.2 +5.1 58 +12 +12 тепло 1019.1 1006.4
21 16.10 З 2 10 км 8/0
[Ac trans]
+11.7 +4.7 62 +11 +11 тепло 1019.6 1006.9
00 17.10 З 2 10 км 4/0
[Ac trans]
+10.1 +5.1 71 +9 +9 тепло 1020.8 1008.0
03 17.10 СЗ 1 10 км 4/0
[Ac trans]
+9.7 +5.9 77 +9 +9 тепло 1022.2 1009.3 +9.7
06 17.10 СЗ 1 10 км 9/0
[Ac trans]
+10.0 +7.1 82 +10 +10 тепло 1024.0 1011.2 +9.1
09 17.10 З 1 14 км 4/0
[Ac cast]
+12.4 +6.9 69 +13 +15 тепло 1025.4 1012.6
12 17.10 СЗ 1 15 км 3/0
[Ac cast]
+12.0 +5.7 65 +12 +13 тепло 1025.7 1012.9
15 17.10 штиль 0 10 км 3/0
[Ac cast]
+7.0 +4.8 86 +6 +6 тепло 1025.7 1012.6 +12.6
18 17.10 штиль 0 10 км дымка ясно +4.6 +3.9 95 +3 +3 по сезону 1025.3 1012.1
21 17.10 ЮВ 1 4000 м дымка ясно +5.5 +4.8 95 +4 +4 по сезону 1024.6 1011.5
00 18.10 ЮВ 1 4000 м дымка ясно +4.7 +4.3 97 +3 +3 по сезону 1023.3 1010.1
03 18.10 Ю 1 4000 м дымка ясно +4.4 +4.0 97 +3 +3 по сезону 1021.8 1008.7 +3.6
06 18.10 Ю 1 7000 м дымка {туман} ясно +7.3 +6.7 96 +6 +7 тепло 1020.4 1007.5 +3.3
09 18.10 З 1 14 км 3/0
[Ci fib]
+14.4 +7.4 63 +15 +18 тепло 1019.2 1006.6
12 18.10 З 1 16 км ясно +16.6 +6.4 51 +18 +19 тепло 1017.5 1005.0
15 18.10 ЮЗ 1 11 км 3/0
[Ci fib]
+11.7 +5.8 67 +12 +12 тепло 1017.0 1004.3 +16.7
18 18.10 штиль 0 10 км ясно +10.0 +5.8 75 +9 +9 тепло 1016.0 1003.2
21 18.10 Ю 1 10 км ясно +8.5 +5.4 81 +8 +8 тепло 1015.0 1002.2
00 19.10 штиль 0 10 км ясно +7.8 +5.1 83 +7 +7 тепло 1013.5 1000.7
03 19.10 З 1 10 км ясно +7.6 +5.6 87 +7 +7 тепло 1012.7 999.9 +7.6
06 19.10 З 1 12 км 8/8 300 м
[Sc]
+9.9 +6.8 81 +9 +10 тепло 1012.8 1000.1 +7.5
09 19.10 З 2 15 км {ливн. осадки} 4/4 300 м
[Sc Ac trans]
+10.7 +7.2 79 +9 +11 тепло 1013.8 1001.1
12 19.10 штиль 0 13 км {ливн. осадки} 4/4 300 м
[Cu med, cong]
+10.8 +6.4 74 +10 +11 тепло 1013.9 1001.2
15 19.10 З 1 10 км ясно +8.5 +3.9 73 +8 +8 тепло 1014.5 1001.7 +12.5 0.0
18 19.10 З 2 10 км 4/0
[Ci fib]
+7.1 +2.0 70 +5 +5 тепло 1015.4 1002.5
21 19.10 З 1 10 км 3/0
[Ci fib]
+5.6 +1.9 77 +5 +5 тепло 1016.0 1003.0
00 20.10 З 2 10 км ясно +4.5 +1.9 83 +2 +2 по сезону 1016.1 1003.1
03 20.10 З 2 10 км 8/0
[Ac trans]
+4.5 +2.1 84 +2 +2 по сезону 1016.9 1003.9 +4.1
06 20.10 З 2 14 км 10/0
[Ac trans]
+5.1 +2.4 83 +3 +3 по сезону 1017.8 1004.8
09 20.10 СЗ 2 12 км 8/8 600 м
[Sc]
+7.0 +3.1 76 +5 +5 тепло 1019.2 1006.2
12 20.10 СЗ 2 14 км {морось} 9/9 300 м
[Sc]
+8.3 +1.9 64 +7 +7 тепло 1019.9 1007.0
15 20.10 З 1 11 км 6/6 600 м
[Sc]
+6.6 +2.1 73 +6 +6 тепло 1020.8 1007.8 +8.4 0.0
18 20.10 СЗ 1 10 км в посл. час ливневой дождь 8/8 300 м
[Sc]
+5.8 +3.5 85 +5 +5 тепло 1021.6 1008.6
21 20.10 штиль 0 10 км 8/8 300 м
[Sc]
+5.5 +4.0 90 +4 +4 тепло 1022.7 1009.6
00 21.10 ЮВ 1 10 км 9/9 300 м
[Sc]
+4.5 +3.0 90 +3 +3 по сезону 1023.5 1010.2
03 21.10 В 1 10 км 10/10 300 м
[Sc]
+4.0 +2.3 89 +3 +3 по сезону 1024.2 1011.0 +3.7 0.0
06 21.10 ЮВ 1 10 км 10/10 300 м
[Sc]
+4.3 +0.9 79 +3 +3 по сезону 1025.4 1012.2 +3.6
09 21.10 ЮВ 2 11 км 10/10 300 м
[Sc]
+5.7 +1.0 72 +3 +3 по сезону 1026.0 1012.9
12 21.10 ЮВ 1 12 км 9/9 300 м
[Sc]
+7.3 +2.4 71 +7 +7 тепло 1025.5 1012.4
15 21.10 ЮВ 1 10 км 10/10 300 м
[Sc]
+5.4 +3.1 85 +4 +4 по сезону 1025.6 1012.5 +7.4
18 21.10 штиль 0 10 км 10/10 300 м
[Sc]
+5.9 +3.6 85 +5 +5 тепло 1025.3 1012.2
21 21.10 штиль 0 10 км 10/10 300 м
[Sc]
+6.2 +3.3 82 +5 +5 тепло 1024.9 1011.7
00 22.10 штиль 0 10 км 10/10 300 м
[Sc]
+6.0 +1.5 73 +5 +5 тепло 1023.7 1010.6
03 22.10 штиль 0 10 км 4/0
[Ci fib]
+4.9 +0.6 74 +4 +4 тепло 1021.7 1008.7 +4.9

 

Местоположение метеостанции Рыбинск (Ярославская область, Россия): широта 58.10 долгота 38.68 высота над уровнем моря 105 м.

В архиве по умолчанию представлена погода в Рыбинске за последнюю неделю. Архивные данные за месяц целиком и за предыдущие месяцы, начиная с января 2011 года, Вы можете получить, выбрав интересующий диапазон дат из раскрывающегося списка и нажав кнопку "Ввод!".


*Определитесь, кто Вы:
робот инопланетянин человек

Внимание! Время в таблицах - всемирное. Для получения местного времени необходимо прибавить поправку, которая в Рыбинске равна 3 ч.

Смотрите также архив погоды в соседних городах и на ближайших метеорологических станциях:

Погода в Борке (Ярославская область, Россия) (26 км)
Погода в Мышкине (Ярославская область, Россия) (38 км)
Погода в Большом Селе (Ярославская область, Россия) (45 км)
Погода в Пошехонье (Ярославская область, Россия) (50 км)
Погода в Брейтово (Ярославская область, Россия) (53 км)
Погода в Тутаеве (Ярославская область, Россия) (55 км)
Погода в Угличе (Ярославская область, Россия) (70 км)
Погода в Данилове (Ярославская область, Россия) (89 км)
Погода в Ярославле-Музее (Ярославская область, Россия) (89 км)
Погода в Ярославле (Ярославская область, Россия) (89 км)

Пояснения к столбцам:

Ветер - указаны скорость ветра в м/с - средняя за 10 мин, порывы в срок и между сроками (в фигурных скобках) и направление, откуда дует ветер: С - северный, СВ - северо-восточный, В - восточный, ЮВ - юго-восточный, Ю - южный, ЮЗ - юго-западный, З - западный, СЗ - северо-западный.
Видимость - горизонтальная дальность видимости в метрах или километрах. При видимости от 1 до 10 км при отсутствии осадков обычно наблюдается дымка, при ухудшении видимости до 1 км и менее - туман. В сухую погоду видимость может ухудшаться дымом, пылью или мглою.
Явления - указаны атмосферные явления, наблюдавшиеся в срок или в последний час перед сроком; фигурными скобками обозначены явления, наблюдавшиеся между сроками (за 1-3 часа до срока); квадратными скобками обозначены град или гололедные отложения с указанием их диаметра в мм.
Облачность - указаны через наклонную черту общая и нижняя облачность в баллах и высота нижней границы облаков в метрах; квадратными скобками обозначены формы облаков: Ci - перистые, Cs - перисто-слоистые, Cc - перисто-кучевые, Ac - высококучевые, As - высокослоистые, Sc - слоисто-кучевые, Ns - слоисто-дождевые, Cu - кучевые, Cb - кучево-дождевые. Подробнее классификацию облаков см. в Атласе облаков (PDF).
T - Температура воздуха - температура, измеренная на высоте 2 м над землей.
Td - Температура точки росы - температура, при понижении до которой содержащийся в воздухе водяной пар достигнет насыщения.
f - Относительная влажность воздуха - влажноcть воздуха, измеренная на высоте 2 м над землей.
Te - Эффективная температура - температура, которую ощущает одетый по сезону человек в тени. Характеристика душности погоды. При расчете учитывается влияние влажности воздуха и скорости ветра на теплоощущения человека.
Tes - Эффективная температура на солнце - температура, которую ощущает человек, с поправкой на солнечный нагрев. Характеристика знойности погоды. Зависит от высоты солнца над горизонтом, облачности и скорости ветра. Ночью, в пасмурную погоду, а также при ветре 12 м/с и более поправка равна нулю.
P - Атмосферное давление - приведенное к уровню моря атмосферное давление.
Po - Атмосферное давление - измеренное на уровне метеостанции атмосферное давление.
Tmin - Минимальная температура - минимум температуры воздуха на высоте 2 м над землей.
Tmax - Максимальная температура - максимум температуры воздуха на высоте 2 м над землей.
R - Количество осадков - Количество выпавших осадков за период времени, мм. При наведении курсора мыши на число - период времени, за который выпало указанное количество осадков.
R24 - Количество осадков - Количество выпавших осадков за 24 часа, мм.
S - Снежный покров - Высота снежного покрова, см. При наведении курсора мыши на число - состояние снежного покрова и степень покрытия местности в баллах.